Date String (YYYY-MM-DD hh:mm:ss) UTC,Instrument flags,absolute air pressure of the measurement (hPa),sample flow rate (lpm),inlet stack bypass flow (lpm),air temperature of the measurement (°C),ambient temperature measured by the external sensor (°C),aerosol sample conditioner tube jacket temperature (°C),OPC LED temperature (°C),internal box temperature (°C),relative humidity of the measurement (%),span deviation,mass concentration of particles derived from Lorenz-Mie calculation of OPC scattering (μg/m³),mass concentration of particles derived from Lorenz-Mie calculation of OPC scattering (μg/m³),mass concentration of particles derived from Lorenz-Mie calculation of OPC scattering (μg/m³)
DateTimeUTC,F1_M11,P_M11,Q1_M11,Q2_M11,T1_M11,T2_M11,T3_M11,T4_M11,T5_M11,U1_M11,ZSPAN_M11,X0_M11,X2_M11,X1_M11
2024-01-20 15:00:00,SystemResetWarning,0828.6,5.00,000.00,018.8,018.3,000.0,027.2,020.0,12.6,0003.9,0013.35,0008.79,0008.20
2024-01-20 15:01:00,SystemResetWarning,0828.6,5.00,000.00,018.8,018.2,000.0,027.2,020.0,12.7,0004.1,0013.36,0008.80,0008.20
2024-01-20 15:02:00,SystemResetWarning,0828.7,5.01,000.00,018.8,018.2,000.0,027.2,020.0,12.7,0004.2,0013.33,0008.80,0008.20
2024-01-20 15:03:00,SystemResetWarning,0828.7,5.00,000.00,018.8,018.1,000.0,027.2,020.0,12.8,0001.7,0013.19,0008.76,0008.19
2024-01-20 15:04:00,SystemResetWarning,0828.7,5.00,000.00,018.8,018.1,000.0,027.2,020.0,12.8,0002.0,0013.18,0008.73,0008.15
2024-01-20 15:05:00,SystemResetWarning,0828.7,5.00,000.00,018.8,018.1,000.0,027.2,020.0,12.9,0001.2,0012.95,0008.68,0008.12
2024-01-20 15:06:00,SystemResetWarning,0828.7,5.00,000.00,018.8,018.1,000.0,027.2,020.0,12.9,0002.3,0012.94,0008.67,0008.10
2024-01-20 15:07:00,SystemResetWarning,0828.8,5.00,000.00,018.8,018.0,000.0,027.2,020.0,12.9,0003.2,0013.04,0008.67,0008.10
2024-01-20 15:08:00,SystemResetWarning,0828.8,4.99,000.00,018.8,017.9,000.0,027.2,020.0,12.9,0003.7,0013.09,0008.66,0008.08
2024-01-20 15:09:00,SystemResetWarning,0828.8,5.02,000.00,018.8,017.9,000.0,027.2,020.0,12.9,0002.4,0012.99,0008.67,0008.07
2024-01-20 15:10:00,SystemResetWarning,0828.8,5.01,000.00,018.8,017.9,000.0,027.2,020.0,12.9,0002.3,0012.89,0008.68,0008.07
2024-01-20 15:11:00,SystemResetWarning,0828.7,4.99,000.00,018.7,017.9,000.0,027.2,020.0,12.9,0002.2,0013.03,0008.71,0008.07
2024-01-20 15:12:00,SystemResetWarning,0828.8,4.99,000.00,018.8,017.8,000.0,027.3,020.0,12.8,0001.9,0013.54,0008.73,0008.09
2024-01-20 15:13:00,SystemResetWarning,0828.7,5.01,000.00,018.8,017.8,000.0,027.3,020.0,12.8,0001.8,0013.40,0008.69,0008.07
2024-01-20 15:14:00,SystemResetWarning,0828.8,5.01,000.00,018.8,017.8,000.0,027.3,020.0,12.8,0001.5,0013.40,0008.70,0008.08
2024-01-20 15:15:00,SystemResetWarning,0828.8,5.00,000.00,018.8,017.7,000.0,027.3,020.0,12.8,0001.7,0013.44,0008.71,0008.10
2024-01-20 15:16:00,SystemResetWarning,0828.7,5.00,000.00,018.7,017.7,000.0,027.3,020.0,12.9,0002.3,0013.60,0008.75,0008.12
2024-01-20 15:17:00,SystemResetWarning,0828.8,5.00,000.00,018.7,017.7,000.0,027.3,020.0,13.0,0002.6,0013.54,0008.85,0008.19
2024-01-20 15:18:00,SystemResetWarning,0828.8,5.00,000.00,018.7,017.6,000.0,027.3,020.0,13.0,0002.4,0013.60,0009.02,0008.35
2024-01-20 15:19:00,SystemResetWarning,0828.9,4.99,000.00,018.7,017.6,000.0,027.3,020.0,13.0,0002.0,0013.65,0009.15,0008.47
2024-01-20 15:20:00,SystemResetWarning,0828.8,5.00,000.00,018.8,017.7,000.0,027.2,020.2,13.0,0002.6,0013.81,0009.20,0008.55
2024-01-20 15:21:00,SystemResetWarning,0828.8,5.01,000.00,018.9,018.3,000.0,027.2,020.6,12.9,0002.5,0014.78,0009.24,0008.60
2024-01-20 15:22:00,SystemResetWarning,0828.7,5.00,000.00,019.0,019.0,000.0,027.2,020.8,12.9,0002.3,0014.86,0009.25,0008.63
2024-01-20 15:23:00,SystemResetWarning,0828.7,4.98,000.00,019.0,018.9,000.0,027.2,020.4,12.8,0002.4,0014.45,0009.27,0008.64
2024-01-20 15:24:00,SystemResetWarning,0828.8,5.00,000.00,019.0,018.7,000.0,027.2,020.1,12.8,0002.4,0014.72,0009.34,0008.67
2024-01-20 15:25:00,SystemResetWarning,0828.8,5.00,000.00,018.9,018.5,000.0,027.2,020.0,12.8,0003.0,0014.77,0009.36,0008.68
2024-01-20 15:26:00,SystemResetWarning,0828.8,5.00,000.00,018.9,018.4,000.0,027.2,020.0,12.9,0002.9,0014.81,0009.40,0008.70
2024-01-20 15:27:00,SystemResetWarning,0828.7,5.00,000.00,018.9,018.3,000.0,027.2,020.0,12.9,0002.3,0014.80,0009.40,0008.69
2024-01-20 15:28:00,SystemResetWarning,0828.8,5.00,000.00,018.8,018.2,000.0,027.2,020.0,12.9,0001.9,0014.71,0009.27,0008.60
2024-01-20 15:29:00,SystemResetWarning,0828.7,5.00,000.00,018.8,018.2,000.0,027.2,020.0,13.0,0001.6,0014.47,0009.04,0008.39
2024-01-20 15:30:00,SystemResetWarning,0828.7,5.00,000.00,018.8,018.2,000.0,027.2,020.0,13.0,0001.5,0014.40,0008.86,0008.24
2024-01-20 15:31:00,SystemResetWarning,0828.7,5.00,000.00,018.8,018.1,000.0,027.2,020.0,13.0,0001.0,0014.34,0008.75,0008.13
2024-01-20 15:32:00,SystemResetWarning,0828.7,5.00,000.00,018.8,018.1,000.0,027.2,020.0,13.0,0000.0,0013.20,0008.65,0008.05
2024-01-20 15:33:00,SystemResetWarning,0828.8,5.00,000.00,018.8,018.1,000.0,027.2,020.0,12.9,0000.0,0013.08,0008.56,0007.99
2024-01-20 15:34:00,SystemResetWarning,0828.8,5.01,000.00,018.8,018.0,000.0,027.2,020.0,13.0,0000.0,0013.09,0008.46,0007.93
2024-01-20 15:35:00,SystemResetWarning,0828.7,5.01,000.00,018.8,018.0,000.0,027.2,020.0,13.0,0000.0,0012.95,0008.39,0007.86
2024-01-20 15:36:00,SystemResetWarning,0828.7,5.00,000.00,018.8,018.0,000.0,027.2,020.0,13.0,0000.0,0012.94,0008.34,0007.81
2024-01-20 15:37:00,SystemResetWarning,0828.7,4.99,000.00,018.8,018.0,000.0,027.2,020.0,13.0,0000.0,0012.84,0008.29,0007.80
2024-01-20 15:38:00,SystemResetWarning,0828.8,4.99,000.00,018.8,018.0,000.0,027.2,020.0,13.1,0000.0,0012.84,0008.29,0007.81
2024-01-20 15:39:00,SystemResetWarning,0828.7,5.00,000.00,018.7,017.9,000.0,027.2,020.0,13.2,0000.0,0012.84,0008.34,0007.85
2024-01-20 15:40:00,SystemResetWarning,0828.7,5.00,000.00,018.7,017.9,000.0,027.2,020.0,13.2,0000.0,0012.84,0008.38,0007.89
2024-01-20 15:41:00,SystemResetWarning,0828.6,5.01,000.00,018.7,017.9,000.0,027.2,020.0,13.1,0000.0,0013.34,0008.44,0007.95
2024-01-20 15:42:00,SystemResetWarning,0828.6,5.00,000.00,018.7,017.9,000.0,027.2,020.0,13.0,0000.0,0013.49,0008.49,0008.00
2024-01-20 15:43:00,SystemResetWarning,0828.6,5.01,000.00,018.7,017.9,000.0,027.2,020.0,13.0,0000.0,0014.02,0008.58,0008.07
2024-01-20 15:44:00,SystemResetWarning,0828.6,5.00,000.00,018.7,017.9,000.0,027.2,020.0,13.0,0000.0,0014.30,0008.71,0008.15
2024-01-20 15:45:00,SystemResetWarning,0828.6,4.99,000.00,018.7,017.9,000.0,027.2,020.0,12.9,0002.2,0014.08,0008.78,0008.22
2024-01-20 15:46:00,SystemResetWarning,0828.6,4.99,000.00,018.7,017.9,000.0,027.2,020.0,12.9,0002.9,0014.68,0008.87,0008.30
2024-01-20 15:47:00,SystemResetWarning,0828.6,4.99,000.00,018.7,017.8,000.0,027.2,020.0,13.0,0002.4,0014.96,0008.96,0008.39
2024-01-20 15:48:00,SystemResetWarning,0828.7,5.00,000.00,018.7,017.8,000.0,027.2,020.0,13.1,0001.6,0014.95,0009.01,0008.45
2024-01-20 15:49:00,SystemResetWarning,0828.7,5.01,000.00,018.7,017.8,000.0,027.2,020.0,13.3,0001.5,0015.01,0009.05,0008.47
2024-01-20 15:50:00,SystemResetWarning,0828.7,5.01,000.00,018.7,017.8,000.0,027.2,020.0,13.4,0001.8,0015.00,0009.06,0008.48
2024-01-20 15:51:00,SystemResetWarning,0828.7,5.01,000.00,018.7,017.8,000.0,027.2,020.0,13.4,0001.8,0014.99,0009.07,0008.50
2024-01-20 15:52:00,SystemResetWarning,0828.7,5.00,000.00,018.7,017.8,000.0,027.2,020.1,13.5,0002.0,0015.64,0009.05,0008.49
2024-01-20 15:53:00,SystemResetWarning,0828.7,5.00,000.00,018.8,018.2,000.0,027.2,020.5,13.5,0002.0,0014.99,0009.00,0008.46
2024-01-20 15:54:00,SystemResetWarning,0828.8,5.01,000.00,018.9,018.9,000.0,027.2,020.9,13.4,0002.2,0014.47,0008.96,0008.42
2024-01-20 15:55:00,SystemResetWarning,0828.8,5.00,000.00,019.0,019.1,000.0,027.2,020.7,13.3,0001.9,0014.30,0008.91,0008.39
2024-01-20 15:56:00,SystemResetWarning,0828.7,4.99,000.00,019.0,018.9,000.0,027.2,020.3,13.3,0002.4,0014.05,0008.83,0008.36
2024-01-20 15:57:00,SystemResetWarning,0828.7,5.00,000.00,019.0,018.7,000.0,027.2,020.1,13.3,0002.5,0013.70,0008.78,0008.32
2024-01-20 15:58:00,SystemResetWarning,0828.7,5.01,000.00,018.9,018.5,000.0,027.2,020.0,13.3,0002.4,0013.05,0008.70,0008.27
2024-01-20 15:59:00,SystemResetWarning,0828.6,5.00,000.00,018.9,018.4,000.0,027.2,020.0,13.3,0002.5,0013.49,0008.66,0008.22
